Location: Santiago
(33.4378°S, 70.6505°W)
Time: 08:49:10
(UTC+00:00)

ISS - Pass Details

Date: 11 February 2026
Orbit: 413 x 428 km, 51.6° (Epoch: 14 February)

Event Time Altitude Azimuth Distance (km) Brightness Sun altitude
Rises 00:40:19 0° 263° (W) 2,403 1.6 -12.7°
Reaches altitude 10° 00:43:46 10° 226° (SW) 1,545 0.4 -13.3°
Maximum altitude 00:44:54 11° 207° (SSW) 1,474 -0.2 -13.5°
Drops below altitude 10° 00:46:02 10° 188° (S) 1,550 -0.4 -13.7°
Sets 00:49:31 0° 151° (SSE) 2,425 0.1 -14.4°
